GFSGL_prec_cloud_273.txt.gz
Cloud_Cover
100 100 100 100 100 100 100 92 100 100 100 90 98 100 31 5 0 11 100 100 100 100 100 100 100 100 100 100 100 100 100 100 100 100 100 100 100 100 100 100 100 100 100
100 100 100 100 100 100 100 100 100 100 100 100 57 12 100 100 90 48 80 100 100 100 100 100 100 100 100 100 100 100 100 100 100 100 100 100 100 100 100 100 100 100 100
100 100 100 100 100 100 100 100 100 100 100 100 100 99 74 100 100 100 100 100 100 100 100 100 100 100 100 100 100 100 100 100 100 100 100 100 100 100 100 100 100 100 100
100 100 100 100 100 100 100 100 100 100 100 100 100 100 100 100 100 100 100 100 100 100 100 100 100 100 100 100 100 100 100 100 100 100 100 100 100 100 100 100 100 100 100
74 96 97 100 100 100 100 100 100 100 100 100 100 100 100 100 100 100 100 100 100 100 100 100 100 100 100 100 100 100 100 100 100 100 100 100 100 100 100 100 100 100 100
96 95 100 100 100 100 100 100 100 100 100 100 100 100 100 100 100 100 100 100 100 100 100 100 100 100 100 100 100 100 100 100 100 100 100 100 100 100 100 100 100 100 100
92 96 93 98 99 95 100 100 100 100 100 100 100 100 100 100 100 100 100 100 100 100 100 100 100 100 100 100 100 100 100 100 100 100 100 100 100 100 100 100 100 100 100
90 83 97 97 100 98 100 100 100 100 100 100 100 100 100 100 100 100 100 100 100 100 100 100 100 100 100 100 100 100 100 100 100 100 100 100 100 100 100 100 100 100 100
99 99 99 95 100 100 100 100 100 100 100 100 100 100 100 100 100 100 100 100 100 100 100 100 100 100 100 100 100 100 100 100 100 100 100 100 100 100 100 100 100 100 100
100 100 99 100 100 100 100 100 100 100 100 100 100 100 100 100 100 100 100 100 100 100 100 100 100 100 100 100 100 100 100 100 100 100 100 100 100 100 100 100 100 100 100
100 100 98 100 100 100 100 100 100 100 100 100 100 100 100 100 100 100 100 100 100 100 100 100 100 100 100 100 100 100 100 100 100 100 100 100 100 100 100 100 100 100 100
16 100 100 100 100 100 100 100 100 100 100 100 100 100 100 100 100 100 100 100 100 100 100 100 100 100 100 100 100 100 100 100 100 100 100 100 100 100 100 100 100 100 100
5 96 100 100 100 100 100 100 100 100 100 100 100 100 100 100 100 100 100 100 100 74 100 100 100 100 100 100 100 100 100 100 100 100 100 100 100 100 100 100 100 100 88
5 5 72 100 100 100 100 100 100 100 100 99 98 100 100 100 100 98 100 100 25 100 55 96 100 92 94 100 100 100 100 100 100 100 100 100 100 100 70 5 5 5 5
5 19 22 62 100 100 100 100 100 99 65 68 99 86 59 87 54 12 21 11 23 52 86 99 92 86 99 100 100 100 100 100 99 100 100 95 51 14 5 5 5 5 5
5 47 73 76 84 80 79 99 99 100 100 100 100 100 100 92 53 34 62 76 99 100 100 100 100 100 100 100 100 100 100 75 63 35 23 7 5 5 5 5 5 5 55
5 36 74 67 75 81 86 94 99 81 83 69 27 8 37 78 88 84 56 100 100 100 100 100 68 56 60 67 68 78 94 94 56 7 5 5 5 5 5 5 5 73 100
5 7 40 66 73 77 73 86 100 98 88 91 39 52 22 88 93 96 93 82 88 82 73 81 82 83 63 39 18 5 5 5 5 5 5 5 5 5 31 10 32 85 97
41 32 30 66 72 56 72 81 78 77 88 94 100 45 81 72 90 86 99 81 72 99 98 48 10 11 10 6 6 10 5 5 5 7 5 5 5 5 24 73 94 84 69
32 34 25 57 75 82 82 84 92 85 93 96 100 98 72 77 90 83 69 78 72 58 59 60 53 11 5 5 5 5 5 24 5 5 55 86 96 88 89 97 96 99 100
5 5 7 72 73 65 70 83 76 99 99 100 77 96 100 98 93 78 74 88 99 87 70 84 77 63 60 34 8 7 7 6 40 84 76 89 100 99 100 100 100 100 100
26 96 65 39 40 80 66 64 78 87 100 100 100 100 100 100 96 97 96 94 100 99 96 79 66 58 51 70 84 100 100 93 99 100 99 100 100 100 100 100 100 100 100
5 16 68 93 100 99 92 74 88 82 100 100 100 100 100 100 100 100 100 100 99 99 94 100 96 86 98 100 99 98 100 94 100 100 100 100 100 100 100 100 100 100 100
76 100 80 87 94 85 99 100 100 100 100 100 100 100 100 100 100 100 100 100 88 75 89 94 99 100 98 99 97 100 100 100 100 100 100 100 100 100 100 100 100 100 100
100 100 100 100 100 100 100 100 100 100 100 100 100 100 100 100 100 99 94 78 90 97 81 81 91 79 81 98 98 100 100 100 100 100 100 100 100 100 100 100 100 100 100
100 100 100 100 100 100 100 100 100 100 100 100 100 100 99 100 100 100 90 100 97 98 100 79 94 100 100 100 100 100 100 100 100 100 100 100 100 100 100 100 100 100 100

GFSGL_prec_cloud_279.txt.gz
Cloud_Cover
85 74 100 100 100 100 100 100 100 100 100 100 100 100 100 98 100 94 15 100 100 100 38 3 27 94 98 100 100 100 100 100 100 100 100 100 100 100 100 100 100 100 100
75 73 82 88 100 100 100 100 100 100 98 100 100 100 100 100 100 100 100 100 100 100 100 100 55 52 100 100 100 100 100 100 100 100 100 100 100 100 100 100 100 100 100
95 88 84 83 76 85 100 100 100 86 100 100 100 100 100 100 100 96 100 100 100 100 100 41 100 100 100 100 100 100 100 100 100 100 100 100 100 100 100 100 100 100 100
90 35 64 84 91 97 100 89 100 100 100 100 100 100 100 100 100 100 99 100 100 77 100 100 100 100 100 100 100 100 100 100 100 100 100 100 100 100 100 100 100 100 100
73 9 19 78 82 89 100 96 96 100 100 100 100 100 100 100 100 100 100 90 64 92 100 100 100 100 100 100 100 100 100 100 100 100 100 100 100 100 100 100 100 100 100
23 22 15 80 89 89 80 91 98 100 100 100 100 100 100 100 100 100 100 100 100 100 100 100 100 100 100 100 100 100 100 100 100 100 100 100 100 100 100 100 100 100 100
14 5 5 34 77 81 84 91 89 93 98 100 100 100 100 100 100 100 100 100 100 100 100 100 100 100 100 100 100 100 100 100 100 100 100 100 100 100 100 100 100 100 100
8 58 49 66 78 26 75 55 86 95 98 100 100 100 100 100 100 100 100 100 100 100 100 100 100 100 100 100 100 100 100 100 100 100 100 100 100 100 100 100 100 100 100
62 86 83 97 73 63 85 84 83 92 88 100 100 100 100 100 100 100 100 100 100 100 100 100 100 100 100 100 100 100 100 100 100 100 100 100 100 100 100 100 100 100 100
91 82 61 62 82 68 88 87 95 95 99 100 100 100 100 100 100 100 100 100 100 100 100 100 100 100 100 100 100 100 100 100 100 100 100 100 100 100 100 100 100 100 100
58 10 5 8 5 6 65 91 88 99 100 100 100 100 100 100 100 100 100 100 100 100 100 100 100 100 100 100 100 100 100 100 100 100 100 100 100 100 100 100 100 100 100
5 5 5 5 5 5 18 15 98 82 98 100 100 100 100 100 100 100 100 100 100 100 100 100 100 100 100 100 100 100 100 100 100 100 100 100 100 100 100 100 100 100 100
5 5 5 5 5 5 5 5 5 5 7 25 100 100 100 100 100 100 100 100 100 100 100 100 100 100 100 100 100 100 100 100 100 100 100 100 100 100 100 100 100 100 100
5 7 18 5 9 5 28 25 16 54 98 98 96 60 60 67 99 100 100 100 100 100 100 100 100 100 100 100 100 100 100 100 100 100 100 100 100 100 100 100 100 100 100
9 5 33 13 63 58 30 7 44 100 100 100 100 100 100 100 100 100 100 100 100 100 100 100 100 100 100 100 100 100 100 100 100 100 100 100 100 100 100 100 100 100 100
5 5 11 57 73 69 58 70 69 47 15 23 90 100 100 100 100 100 100 100 100 98 100 100 100 100 100 100 100 100 100 100 100 100 100 100 100 100 100 100 100 100 86
5 5 16 52 64 73 60 84 54 68 100 100 100 99 70 19 100 100 100 100 100 100 100 90 100 100 100 100 100 100 100 100 100 100 100 100 100 95 68 96 66 76 91
5 5 5 5 48 58 44 86 99 26 40 60 47 80 84 98 95 94 78 79 100 100 100 100 100 100 100 100 100 94 57 100 100 100 100 100 65 56 84 91 86 82 18
5 7 5 5 9 36 37 59 42 13 5 46 91 7 69 46 7 35 17 21 72 98 97 99 100 100 100 100 100 100 100 100 100 94 72 50 5 5 5 5 5 5 5
19 5 15 11 50 66 58 88 76 53 33 60 99 82 63 53 86 98 92 100 92 68 70 65 62 78 93 96 77 72 46 31 50 10 5 5 5 5 5 5 5 33 76
100 100 9 5 8 59 77 86 92 99 100 83 58 99 99 94 100 99 94 92 96 100 88 88 81 73 67 68 77 72 37 14 6 5 5 5 7 6 5 8 58 73 95
100 100 92 6 52 56 80 80 98 93 98 100 100 100 99 100 100 100 98 97 99 91 89 97 74 69 70 86 90 99 98 91 84 86 89 89 92 88 96 98 100 100 100
100 98 100 100 100 100 100 94 99 96 100 100 99 98 100 100 100 100 100 100 97 99 93 76 78 69 68 67 73 93 94 82 96 100 95 100 100 100 100 100 100 100 100
100 100 100 100 100 100 100 100 100 100 100 100 100 100 100 100 100 100 99 100 98 91 90 86 88 77 81 90 95 100 99 98 100 100 100 100 100 100 100 100 100 100 100
97 100 100 100 100 100 100 100 100 100 100 100 100 100 100 100 100 100 100 100 100 100 100 99 91 100 100 100 100 96 100 100 100 100 100 100 99 98 96 89 93 97 98
100 91 89 100 100 100 100 100 100 100 100 100 100 100 100 100 100 100 100 83 83 94 99 99 100 100 100 100 100 100 100 100 100 100 100 99 100 95 92 99 90 91 98

GFSGL_prec_cloud_285.txt.gz
Cloud_Cover
5 5 31 48 64 75 92 100 100 100 100 100 100 100 100 100 100 100 100 100 100 100 100 99 77 100 100 88 100 100 72 71 100 100 100 100 100 100 100 100 100 100 100
5 11 28 28 40 66 99 100 100 100 100 100 100 100 100 100 100 100 100 100 100 100 100 94 66 100 100 97 100 100 100 69 58 100 100 100 100 100 100 100 100 100 100
5 10 6 11 32 60 100 100 100 100 100 100 100 100 100 100 100 100 100 100 100 100 100 100 100 100 100 99 95 100 100 100 65 99 100 100 100 100 100 100 100 100 100
7 7 10 18 20 55 88 100 100 100 100 100 100 100 100 100 100 100 100 100 100 100 100 100 100 100 100 100 95 99 100 100 100 100 100 100 100 100 100 100 100 100 100
19 5 5 14 18 20 59 99 100 100 100 97 94 100 99 99 100 100 100 100 100 100 100 100 100 100 100 100 100 34 98 100 100 100 100 98 100 100 100 100 100 100 100
5 5 5 26 16 7 29 84 100 100 100 100 100 81 68 98 100 100 100 100 100 100 100 100 100 100 100 100 95 83 70 100 100 100 100 100 100 100 100 100 100 100 100
5 5 5 6 6 9 25 98 100 100 100 95 59 76 100 100 100 100 100 100 100 100 100 100 100 100 100 100 100 100 100 100 100 100 100 100 100 100 100 100 100 100 100
5 5 5 5 5 5 11 100 100 81 100 98 84 100 90 100 100 100 100 100 100 100 100 100 100 100 100 100 100 100 100 100 100 100 100 100 100 100 100 100 100 100 100
5 5 5 5 5 5 5 85 97 92 67 97 72 96 100 100 100 100 100 100 100 100 100 100 100 100 100 100 100 100 100 100 100 100 100 100 100 100 100 100 100 100 100
5 5 5 5 5 5 5 5 5 76 49 68 73 70 86 100 100 100 100 100 100 100 100 100 100 100 100 100 100 100 100 100 100 100 100 100 100 100 100 100 100 100 100
5 5 5 5 5 5 5 5 7 5 5 5 6 31 32 99 100 100 100 100 100 100 100 100 100 100 100 100 100 100 100 100 100 100 100 100 98 98 100 100 100 100 100
5 5 5 5 5 5 5 5 5 5 5 4 3 7 24 34 100 100 100 100 100 100 100 100 100 100 100 100 100 100 100 100 100 100 87 100 100 100 100 100 100 100 100
5 5 5 5 5 5 4 5 4 0 1 5 5 23 5 92 64 100 100 100 100 100 100 100 100 100 100 100 100 100 100 100 100 100 100 100 100 100 100 100 100 100 100
5 5 5 5 5 5 5 5 5 5 5 5 5 34 10 6 98 42 100 100 97 100 100 100 100 100 100 100 100 100 100 100 100 100 100 100 100 100 100 100 100 100 100
5 48 5 5 5 5 5 7 10 5 7 7 9 10 11 29 10 18 19 97 94 100 79 64 89 100 100 100 100 100 100 100 100 100 100 100 100 100 100 100 100 100 100
5 2 99 20 5 5 31 17 66 78 100 84 14 10 5 5 23 5 11 34 8 42 73 82 43 86 100 100 100 100 100 100 100 100 100 100 100 100 100 100 100 100 100
5 5 6 89 93 5 49 8 5 27 93 85 100 94 15 16 76 9 5 5 2 59 46 20 8 22 58 93 100 100 100 100 100 100 100 100 100 100 100 100 100 100 100
100 63 5 90 100 100 66 10 5 21 80 73 40 47 48 64 18 50 5 5 5 4 5 6 66 100 46 14 39 85 89 100 100 100 100 100 60 58 88 96 100 100 100
100 100 51 84 64 100 100 100 100 77 21 51 100 100 86 100 74 19 5 6 17 20 5 5 5 5 5 35 77 99 92 38 5 19 27 35 21 18 5 22 5 5 5
63 100 100 100 100 90 78 100 100 100 100 100 70 7 27 100 100 100 100 100 77 86 70 86 52 12 5 6 41 41 8 13 29 33 60 57 26 6 5 5 5 5 5
100 100 100 98 100 82 81 82 100 100 100 99 100 94 67 5 80 99 100 100 100 100 100 100 100 100 86 92 91 83 30 41 5 6 5 5 5 5 5 5 5 5 8
100 100 94 98 100 88 13 63 100 100 100 100 100 100 100 86 66 73 50 82 100 100 100 100 100 100 100 100 100 100 100 95 98 82 84 100 89 94 98 100 100 100 100
94 100 99 99 100 100 100 100 88 100 100 100 100 95 98 100 100 100 100 100 100 100 100 96 95 99 100 81 97 100 100 100 100 100 100 100 100 100 100 100 97 99 100
61 31 96 93 99 100 100 100 100 100 96 98 100 100 100 100 100 100 100 100 100 99 98 99 86 89 100 86 97 100 93 95 98 96 100 100 100 99 99 100 100 100 98
91 95 99 100 100 100 100 100 100 100 100 100 100 100 100 100 100 100 100 100 100 100 100 100 100 100 100 96 100 100 100 100 94 100 100 99 100 100 100 98 100 100 100
87 54 61 100 100 100 100 100 94 99 100 100 100 100 100 100 100 100 100 100 100 100 100 100 100 100 100 100 100 100 100 97 100 100 100 100 100 100 100 100 100 97 100

GFSGL_prec_cloud_291.txt.gz
Cloud_Cover
0 0 3 5 5 5 5 5 34 100 100 100 100 100 100 100 100 100 100 100 100 100 100 100 100 100 100 100 100 100 100 100 100 85 100 100 100 100 100 100 100 100 100
0 5 5 5 5 5 5 5 97 100 100 100 100 100 100 100 100 100 100 100 100 100 100 100 100 100 100 100 100 100 100 100 100 100 99 100 100 100 100 100 100 100 100
5 5 5 5 5 5 5 66 37 65 98 100 100 100 100 100 100 100 100 100 100 100 100 100 100 100 100 100 100 100 100 84 86 100 100 100 98 100 100 100 100 100 98
5 5 7 5 7 7 8 97 20 9 95 100 100 100 100 100 100 100 100 100 100 100 100 100 100 100 100 100 100 100 100 100 100 100 100 100 100 100 100 91 100 100 100
6 12 5 8 15 46 7 98 93 47 96 100 100 100 100 100 100 100 100 100 100 100 100 100 100 100 100 100 100 100 100 100 100 100 100 100 100 100 100 82 100 100 100
68 36 54 71 61 5 5 9 100 98 51 100 100 100 100 100 100 100 90 89 100 100 100 100 100 100 100 100 100 100 100 100 100 100 100 100 100 100 100 100 100 100 100
72 25 68 95 24 5 5 5 26 42 9 93 92 100 100 94 100 100 47 33 75 90 100 100 100 100 100 100 100 99 100 100 100 100 100 100 100 100 100 100 100 100 100
84 65 73 94 5 5 5 5 23 7 5 5 5 19 93 100 100 100 18 17 10 70 100 100 100 100 100 100 100 100 100 100 100 99 100 100 100 100 100 100 100 100 100
48 30 68 63 5 5 5 19 50 62 5 5 5 22 5 10 100 100 22 16 22 25 59 100 100 100 100 100 100 100 100 100 100 100 100 100 100 100 100 100 100 100 100
5 5 10 7 5 5 44 51 55 48 5 5 5 5 5 5 39 100 34 13 14 89 75 62 100 100 98 76 98 100 100 100 100 100 100 100 100 100 100 100 100 100 100
5 11 51 5 5 5 39 59 5 5 5 5 5 5 5 5 36 10 88 35 58 93 88 81 100 100 100 100 91 100 100 100 100 100 100 100 100 100 100 100 100 100 100
51 64 6 5 26 19 5 5 5 5 5 5 5 8 5 5 4 2 5 29 12 67 97 88 91 100 100 100 92 100 100 100 100 100 100 100 100 100 100 100 100 100 100
84 100 82 5 96 30 10 5 5 5 48 24 40 73 52 5 5 3 0 0 1 4 7 84 86 88 92 98 99 100 85 97 99 100 100 100 100 100 100 100 100 100 100
90 98 100 36 100 100 100 11 10 53 68 65 76 100 100 100 53 12 40 5 26 4 2 5 5 5 52 5 11 29 98 54 76 98 75 86 91 100 99 92 92 95 98
100 100 100 100 100 100 100 100 85 5 5 66 66 76 67 74 87 100 100 100 100 65 14 8 5 5 5 5 5 5 5 5 19 46 14 81 82 13 22 50 54 8 5
55 100 100 100 100 100 100 100 99 100 80 91 57 39 6 5 5 25 5 5 5 30 43 50 41 7 5 5 5 5 5 10 28 5 5 5 9 55 100 98 90 98 84
45 89 100 100 100 100 100 100 100 100 33 47 76 55 59 6 36 9 82 26 5 5 48 98 63 66 5 5 5 5 17 58 24 5 5 5 5 5 5 20 87 100 100
18 21 96 82 100 100 100 100 100 100 73 31 100 100 43 5 5 5 5 17 24 52 57 49 58 56 33 13 5 5 54 91 75 29 5 5 5 15 13 20 9 5 22
5 11 88 100 100 100 100 100 100 100 47 88 77 68 44 5 7 16 9 75 91 83 95 95 77 66 68 66 16 18 21 55 98 37 20 5 5 5 5 56 96 37 70
54 98 100 98 100 100 100 100 100 100 94 60 27 5 74 64 77 82 98 99 100 100 100 99 100 100 94 70 95 91 69 93 73 13 11 65 40 13 56 97 24 32 69
35 60 96 100 100 100 100 100 93 100 100 82 100 74 100 100 100 100 100 100 100 100 100 100 100 100 100 100 100 97 88 100 99 6 52 22 7 96 98 100 100 66 59
85 100 100 100 100 100 96 73 41 32 84 100 97 96 100 100 100 100 100 54 37 74 96 100 100 100 100 96 97 97 100 100 100 99 99 99 74 67 37 29 81 82 78
100 100 100 100 100 100 100 100 100 100 100 100 100 100 100 100 100 96 97 58 100 97 100 100 100 99 99 99 100 100 100 97 100 94 95 98 88 89 100 91 100 100 100
100 100 100 100 100 100 100 100 100 100 100 100 97 100 100 100 100 100 73 99 100 100 100 96 81 100 100 100 100 100 100 100 100 98 90 99 93 79 81 94 100 100 100
100 100 100 100 100 100 100 100 100 100 98 100 100 100 100 100 100 100 100 100 100 100 100 100 100 100 100 100 100 100 100 100 100 100 100 100 100 100 100 100 95 99 99
100 100 100 100 100 100 100 100 100 100 100 100 100 100 100 100 100 100 99 100 100 100 100 100 100 100 100 100 100 100 100 100 100 100 100 100 100 100 99 100 100 100 100